Location: Carrières
(48.9495°N, 2.0407°E)
Time: 04:44:59
(UTC+00:00)

Vanguard 1 Rocket - Pass Details

Date: 19 April 2024
Orbit: 650 x 4220 km, 34.3° (Epoch: 27 May)

Event Time Altitude Azimuth Distance (km) Brightness Sun altitude
Rises 22:29:05 0° 258° (WSW) 4,018 10.8 -26.8°
Reaches altitude 10° 22:31:48 10° 246° (WSW) 3,393 10.3 -27.0°
Enters shadow 22:36:45 26° 210° (SSW) 2,930 9.6 -27.3°
